Temperature
17 17 16 17 17 17 17 17 18 18 18 17 17 17 16 16 16 16 16 16 16 16 16 16 16 16 16 15 15 15 15 15 15 15 15 14 14 14
17 17 17 17 17 16 16 17 17 17 18 18 17 17 16 16 16 16 16 16 16 16 16 16 16 16 16 15 15 15 15 15 15 14 14 14 14 14
16 16 16 17 16 16 16 16 17 17 17 17 17 16 16 16 16 16 16 16 16 16 16 16 16 16 16 15 15 15 15 15 14 14 14 14 14 14
16 16 16 16 16 16 16 16 16 16 16 16 16 16 16 16 16 16 16 16 16 16 16 16 16 16 16 15 15 15 15 15 14 14 14 14 14 14
16 16 16 16 16 16 16 16 16 16 16 16 16 16 16 16 16 16 15 16 15 16 16 15 15 15 15 15 15 15 15 14 14 14 14 14 14 14
16 16 16 16 16 16 16 16 16 16 16 16 16 16 16 16 16 16 16 15 15 16 15 15 15 15 15 15 15 15 15 15 14 14 14 14 14 14
16 16 16 16 16 16 16 16 16 16 16 16 16 16 16 16 15 15 15 15 15 15 15 15 15 15 15 15 15 15 15 14 14 14 14 14 14 14
15 15 15 15 16 16 16 16 16 16 15 16 16 16 16 15 15 15 15 15 15 15 15 15 15 15 15 15 15 15 14 14 14 14 14 14 14 14
15 15 15 15 15 15 15 15 16 16 16 15 15 15 15 15 15 15 15 15 15 15 15 15 15 15 15 15 15 14 14 14 14 14 14 14 14 13
15 15 15 15 15 15 15 15 15 15 15 15 15 15 15 15 15 15 15 14 15 15 14 14 15 15 15 14 14 14 14 14 14 14 14 14 13 13
15 15 15 15 15 15 15 15 15 15 15 15 15 15 15 15 15 14 14 14 15 15 14 14 14 14 14 14 14 14 14 14 14 14 13 13 13 13
15 15 15 15 15 15 15 14 14 15 14 14 14 15 15 15 15 14 14 14 15 15 15 14 14 14 14 14 14 14 14 14 14 13 13 13 13 12
15 15 15 15 15 15 15 14 14 14 14 14 14 14 14 14 14 14 14 14 14 14 14 14 14 14 14 14 13 13 13 13 13 13 13 13 13 12
14 14 15 15 15 15 15 14 14 14 14 14 14 14 14 14 14 14 14 13 13 13 14 13 13 13 13 13 13 13 13 13 13 13 12 12 12 12
14 14 14 14 14 14 14 14 14 14 14 14 14 14 14 14 14 13 13 13 13 13 13 13 13 13 13 13 13 13 12 12 12 12 12 12 12 12
14 14 14 14 14 14 14 14 14 14 14 13 14 13 13 13 13 13 13 13 13 13 13 13 13 13 13 13 13 12 12 12 12 12 12 12 12 12
13 13 13 13 13 13 13 13 13 13 13 13 13 13 13 13 13 13 13 13 13 13 13 12 12 12 12 12 12 12 12 12 12 12 11 11 11 11
13 12 13 13 13 13 13 13 13 13 13 13 13 13 13 13 13 13 13 13 12 12 12 12 12 12 12 12 12 11 11 11 11 11 11 11 11 11
12 12 12 12 12 12 12 12 12 12 12 12 12 12 12 12 12 12 12 12 12 12 12 12 12 11 11 11 11 11 11 11 11 11 10 10 11 11
12 12 12 12 12 12 12 12 12 12 12 12 12 12 12 12 12 12 12 12 12 12 12 12 11 11 11 11 11 11 11 10 10 10 10 10 10 10
11 11 11 11 11 11 11 11 11 11 11 11 11 11 11 11 11 11 11 11 11 11 11 11 11 11 11 11 11 11 10 10 10 10 10 10 10 10
11 11 10 10 10 10 10 10 11 11 11 11 11 11 11 11 11 11 11 11 11 11 11 11 11 10 10 10 10 10 10 10 10 9 9 9 9 10
10 10 10 10 10 10 10 10 10 10 10 10 10 10 10 10 10 10 10 10 10 10 11 10 10 10 10 10 10 10 10 9 9 9 9 9 9 9
Wind_Speed
4 5 4 3 3 3 3 4 4 4 4 4 4 4 5 5 6 6 6 9 11 10 9 9 9 10 10 10 10 9 8 8 8 8 8 8 8 8
3 4 4 4 3 3 4 4 4 4 3 2 3 4 4 4 7 7 7 10 11 11 11 11 10 10 10 10 10 10 10 10 10 9 9 8 8 9
4 4 5 4 3 3 3 3 4 4 4 3 3 2 4 5 4 6 7 8 9 14 13 12 12 11 11 11 11 11 11 11 10 10 10 9 9 9
5 4 5 4 4 4 3 4 3 4 5 5 4 3 5 5 5 6 6 7 7 11 14 13 13 13 12 12 12 12 12 11 11 11 10 10 10 10
4 4 4 4 5 4 5 4 4 4 4 5 5 3 4 4 5 6 6 5 7 8 12 13 14 14 14 14 13 13 12 12 12 12 11 11 11 11
4 4 5 5 5 5 5 5 5 5 5 5 5 4 4 4 4 5 5 6 6 6 6 8 11 15 15 15 15 14 14 13 13 12 12 12 12 12
5 5 5 5 5 5 5 5 5 5 5 5 6 5 4 4 5 5 5 5 5 5 5 6 7 8 11 14 16 15 15 14 14 13 13 13 13 13
6 6 6 6 6 7 7 6 6 7 7 6 6 6 5 5 5 6 5 5 5 4 5 6 6 7 7 8 12 15 16 15 15 14 14 14 14 14
6 6 6 5 5 6 7 9 9 9 8 8 8 7 6 5 5 7 6 7 7 4 4 7 6 6 6 7 11 15 15 15 15 14 14 14 14 14
7 7 7 6 6 6 7 7 8 8 8 9 8 8 7 5 6 7 7 8 8 7 5 7 6 6 6 5 11 14 15 15 14 14 14 14 14 14
7 7 8 8 4 5 8 8 8 8 8 9 9 8 6 6 7 6 7 7 7 7 6 6 6 6 6 6 7 14 15 15 14 13 12 13 13 13
7 8 8 8 5 6 8 8 8 8 7 7 8 9 10 9 10 9 8 8 8 7 5 5 6 5 5 5 4 6 8 11 14 13 13 12 12 10
7 7 6 8 8 9 9 9 9 8 8 8 8 8 8 8 9 9 9 9 9 8 5 5 6 6 5 4 4 5 6 6 7 9 12 13 13 12
8 7 5 5 8 10 9 9 9 9 8 8 8 7 7 7 7 7 8 9 9 9 8 7 6 6 6 6 5 5 5 5 5 6 6 10 13 15
7 6 6 6 8 9 11 11 9 8 8 8 8 7 7 7 6 6 7 7 9 9 8 9 8 7 7 7 6 6 5 5 5 6 6 6 7 7
6 5 7 8 8 8 6 7 7 7 7 8 8 6 6 6 6 6 6 5 6 6 7 8 9 8 8 7 7 6 6 5 5 6 6 6 6 7
5 5 5 5 5 5 5 5 6 6 7 7 7 7 6 6 6 5 5 6 6 6 5 5 6 7 8 7 7 7 6 6 6 6 6 7 6 7
4 4 5 5 6 6 5 5 5 6 6 6 6 6 6 6 6 5 5 6 6 6 5 4 4 4 4 5 6 7 6 5 5 5 6 7 7 6
4 5 5 5 6 6 6 6 6 5 5 5 5 5 6 6 5 5 5 5 5 5 5 4 4 5 6 6 5 6 6 5 4 5 6 6 7 6
4 5 5 5 5 6 6 6 6 5 4 4 5 5 5 5 5 5 5 5 5 5 5 5 5 5 6 6 4 4 7 6 5 6 6 6 5 4
4 4 5 5 5 5 5 5 5 5 5 5 4 5 5 5 5 5 5 5 6 6 6 5 4 5 5 4 4 5 4 6 6 6 6 6 6 6
4 4 4 5 5 5 5 5 4 4 4 4 4 4 4 5 5 6 5 5 5 6 6 5 3 4 4 6 6 5 5 4 5 6 6 6 6 7
5 5 4 4 4 4 4 4 4 4 4 3 4 4 4 4 5 5 5 5 5 5 5 4 3 3 5 5 6 5 6 6 5 5 6 7 8 8
Wind_Direction
227 221 235 236 240 249 246 247 257 255 244 217 220 213 218 209 176 213 214 189 196 204 211 215 215 216 217 214 212 212 212 213 215 217 218 220 221 223
238 241 242 242 233 243 245 247 257 263 266 238 223 215 216 224 194 221 222 188 201 206 212 216 217 218 217 212 211 210 210 213 214 214 215 218 221 224
237 233 236 250 242 239 241 240 245 253 252 258 237 211 217 241 211 227 223 219 213 202 209 214 218 220 219 216 214 213 213 215 216 217 219 222 224 226
239 240 242 236 235 241 242 240 242 246 245 248 246 227 224 230 225 233 230 225 227 194 200 210 215 218 220 218 216 215 215 217 218 219 221 222 224 227
245 241 243 240 236 239 240 242 244 244 244 248 246 232 230 224 225 231 233 235 238 200 197 206 213 217 218 218 217 215 215 216 217 219 222 225 226 228
253 245 242 238 236 239 234 236 244 248 245 250 251 238 233 220 227 236 235 225 237 228 211 213 212 214 216 216 215 215 217 217 219 221 223 225 227 228
248 245 242 238 244 244 248 237 237 243 245 246 247 245 239 228 236 243 246 242 233 235 229 224 214 218 215 216 216 214 215 218 220 222 224 225 226 227
250 248 241 231 229 224 242 249 246 243 248 249 247 250 248 243 248 254 255 254 251 227 231 240 229 229 224 219 201 204 212 216 219 221 224 226 225 225
250 253 254 245 234 243 234 230 238 241 244 251 258 258 255 251 254 256 252 255 259 254 242 252 243 240 236 220 190 197 207 214 218 220 222 223 223 222
249 250 254 256 251 251 252 245 245 242 236 240 255 259 262 262 252 253 257 252 251 243 234 255 257 255 248 226 188 197 205 211 215 219 222 221 220 221
251 250 252 253 238 243 250 251 253 253 237 231 245 258 272 263 257 255 251 250 254 249 225 242 256 260 255 241 207 197 203 208 213 217 218 219 221 223
246 243 235 245 239 220 242 250 255 259 262 248 237 239 243 236 225 238 248 252 259 261 237 233 251 253 256 244 232 207 207 208 208 209 210 214 216 222
258 254 242 202 223 226 240 250 255 264 262 258 252 246 241 238 233 231 239 248 257 262 254 229 252 252 253 255 241 231 225 217 211 213 210 209 211 219
266 267 262 202 219 228 237 250 256 256 256 256 252 250 248 248 246 243 241 244 251 259 262 255 253 251 256 259 254 235 228 225 222 219 214 201 210 218
267 284 287 248 238 236 231 237 242 245 250 250 251 251 251 253 255 248 243 241 246 248 245 245 250 248 246 250 251 243 240 236 227 227 223 215 215 214
269 266 244 239 243 260 256 235 239 246 250 251 253 258 261 256 250 252 251 243 250 255 242 240 243 243 247 249 246 244 236 232 226 224 228 230 226 224
295 278 275 270 260 254 254 255 251 247 245 250 252 252 252 253 253 251 253 252 251 254 258 244 235 235 244 250 248 242 239 236 229 220 225 234 234 231
283 273 276 276 275 276 275 268 257 253 254 253 249 252 254 256 256 255 253 252 254 255 255 257 249 243 245 249 248 247 244 243 237 224 231 235 240 235
253 270 275 276 276 276 276 275 272 265 258 257 257 257 257 258 257 256 256 258 259 260 258 254 247 241 245 252 239 226 238 241 239 232 232 237 244 240
265 275 281 283 281 279 279 278 280 283 277 266 260 262 263 261 263 264 260 263 266 266 261 251 246 245 249 259 267 249 219 231 238 239 239 241 249 243
288 291 293 293 293 292 291 290 287 285 286 281 274 266 262 262 264 268 267 258 259 263 263 258 256 246 253 256 259 255 235 217 234 241 238 241 244 243
305 304 304 303 302 302 299 296 291 288 286 281 279 277 273 268 267 266 272 271 263 261 264 264 252 243 246 248 255 258 255 238 224 230 242 246 247 245
314 311 311 310 307 306 305 304 301 298 294 296 291 284 283 281 276 272 272 271 270 267 266 267 261 248 248 247 250 254 252 245 240 230 232 228 234 242
Height
1521 1521 1522 1522 1523 1523 1524 1524 1525 1524 1524 1524 1524 1524 1524 1525 1524 1524 1525 1524 1524 1525 1525 1525 1525 1526 1526 1527 1528 1528 1529 1530 1530 1530 1531 1531 1531 1531
1519 1519 1519 1520 1521 1521 1522 1522 1522 1523 1522 1522 1523 1523 1522 1523 1522 1522 1522 1522 1522 1522 1522 1522 1523 1523 1523 1524 1524 1525 1526 1526 1527 1527 1527 1527 1527 1527
1517 1517 1517 1517 1518 1519 1519 1519 1519 1520 1520 1520 1520 1520 1519 1519 1519 1519 1520 1519 1519 1519 1519 1520 1520 1520 1520 1520 1521 1522 1522 1522 1523 1523 1523 1523 1524 1524
1514 1514 1514 1515 1515 1516 1516 1516 1517 1517 1517 1517 1518 1517 1517 1517 1516 1516 1517 1517 1517 1516 1516 1517 1517 1517 1517 1517 1518 1518 1518 1518 1519 1519 1519 1520 1520 1520
1512 1512 1512 1512 1512 1513 1513 1514 1514 1514 1514 1515 1515 1515 1514 1514 1514 1514 1514 1513 1514 1513 1513 1513 1513 1514 1514 1514 1514 1514 1514 1515 1515 1515 1516 1516 1516 1517
1509 1509 1509 1509 1509 1510 1510 1510 1511 1511 1511 1511 1512 1512 1511 1511 1511 1511 1511 1510 1510 1511 1510 1509 1509 1510 1510 1510 1510 1510 1511 1511 1511 1511 1512 1512 1512 1513
1506 1506 1506 1506 1506 1507 1507 1507 1508 1508 1508 1508 1508 1508 1508 1508 1508 1508 1508 1507 1507 1507 1506 1506 1506 1506 1506 1506 1506 1506 1506 1507 1507 1507 1507 1508 1508 1509
1503 1503 1503 1503 1503 1503 1503 1504 1504 1504 1504 1505 1505 1505 1504 1504 1504 1504 1504 1504 1504 1504 1503 1503 1503 1502 1502 1502 1501 1502 1502 1502 1502 1502 1503 1503 1504 1504
1499 1499 1500 1500 1499 1499 1499 1499 1500 1500 1500 1500 1501 1500 1500 1500 1500 1500 1500 1500 1500 1500 1499 1499 1499 1498 1498 1497 1497 1497 1497 1497 1498 1498 1498 1498 1499 1499
1496 1496 1496 1496 1496 1495 1495 1496 1495 1496 1495 1496 1496 1496 1496 1496 1496 1496 1496 1495 1495 1495 1495 1494 1494 1494 1494 1493 1492 1492 1492 1493 1493 1493 1493 1494 1494 1494
1492 1492 1492 1492 1491 1491 1492 1491 1491 1491 1491 1491 1491 1491 1491 1491 1491 1492 1492 1492 1491 1491 1490 1489 1489 1489 1488 1488 1487 1487 1487 1488 1488 1488 1489 1489 1489 1489
1489 1488 1487 1487 1487 1487 1487 1487 1486 1486 1487 1487 1486 1486 1486 1486 1486 1486 1487 1487 1486 1486 1485 1485 1484 1484 1484 1483 1483 1482 1482 1482 1482 1483 1483 1484 1484 1485
1485 1485 1484 1483 1482 1482 1482 1482 1481 1482 1482 1482 1481 1481 1481 1481 1481 1481 1481 1481 1481 1481 1481 1480 1479 1479 1479 1478 1478 1477 1477 1477 1477 1478 1478 1479 1479 1480
1480 1480 1479 1478 1477 1477 1477 1476 1476 1477 1477 1477 1476 1476 1476 1476 1476 1476 1475 1475 1475 1475 1475 1475 1474 1474 1474 1473 1472 1472 1472 1473 1473 1473 1473 1473 1474 1475
1475 1474 1473 1473 1472 1471 1471 1471 1471 1471 1471 1471 1471 1471 1471 1471 1471 1470 1470 1469 1469 1469 1468 1468 1468 1469 1469 1468 1467 1467 1467 1467 1468 1468 1468 1468 1469 1470
1470 1469 1468 1467 1467 1466 1466 1465 1465 1465 1465 1465 1465 1465 1466 1465 1465 1465 1465 1464 1464 1464 1463 1462 1462 1462 1463 1463 1462 1462 1462 1462 1462 1463 1463 1464 1464 1465
1466 1465 1464 1464 1463 1462 1462 1461 1461 1461 1460 1460 1460 1460 1460 1460 1460 1460 1459 1459 1459 1458 1458 1457 1457 1457 1457 1457 1457 1457 1457 1457 1457 1458 1458 1459 1459 1460
1462 1461 1460 1460 1459 1458 1458 1457 1457 1456 1455 1455 1455 1455 1454 1454 1455 1455 1454 1454 1454 1454 1453 1453 1452 1452 1451 1451 1452 1451 1452 1452 1452 1453 1453 1453 1454 1455
1459 1457 1457 1456 1455 1454 1454 1453 1452 1451 1451 1450 1450 1450 1450 1450 1450 1449 1449 1449 1449 1449 1448 1448 1448 1447 1446 1446 1446 1447 1447 1447 1447 1447 1448 1448 1448 1449
1455 1454 1453 1452 1451 1450 1449 1449 1448 1447 1447 1446 1446 1446 1446 1446 1445 1445 1445 1445 1444 1444 1444 1443 1443 1442 1442 1442 1441 1441 1442 1442 1442 1442 1442 1443 1443 1444
1453 1451 1450 1449 1448 1447 1446 1445 1444 1443 1443 1442 1442 1442 1442 1441 1441 1441 1441 1440 1440 1440 1439 1438 1438 1438 1438 1438 1437 1436 1437 1437 1437 1437 1437 1438 1438 1438
1450 1449 1447 1446 1445 1444 1442 1441 1440 1439 1439 1438 1438 1438 1438 1437 1437 1436 1436 1436 1435 1435 1435 1435 1434 1434 1434 1433 1432 1432 1432 1432 1432 1432 1432 1433 1433 1433
1448 1446 1445 1444 1442 1441 1440 1438 1437 1436 1435 1435 1434 1434 1434 1433 1433 1432 1432 1432 1431 1431 1431 1430 1430 1430 1430 1429 1429 1428 1428 1427 1427 1427 1427 1427 1428 1428